TimeEDT,TemperatureF,Dew PointF,Humidity,Sea Level PressureIn,VisibilityMPH,Wind Direction,Wind SpeedMPH,Gust SpeedMPH,PrecipitationIn,Events,Conditions,WindDirDegrees,DateUTC
12:54 AM,55.0,32.0,42,29.73,10.0,SW,6.9,-,N/A,,Clear,230,2014-03-11 04:54:00
1:54 AM,57.0,33.1,40,29.72,10.0,WSW,9.2,-,N/A,,Clear,240,2014-03-11 05:54:00
2:54 AM,57.9,33.1,39,29.72,10.0,West,8.1,-,N/A,,Clear,260,2014-03-11 06:54:00
3:54 AM,55.0,33.1,43,29.70,10.0,WSW,8.1,-,N/A,,Clear,250,2014-03-11 07:54:00
4:54 AM,55.0,34.0,45,29.70,10.0,West,6.9,-,N/A,,Clear,260,2014-03-11 08:54:00
5:54 AM,57.9,35.1,42,29.70,10.0,WNW,6.9,-,N/A,,Clear,290,2014-03-11 09:54:00
6:54 AM,55.9,36.0,47,29.72,10.0,West,5.8,-,N/A,,Clear,270,2014-03-11 10:54:00
7:54 AM,57.0,37.0,47,29.73,10.0,West,5.8,-,N/A,,Clear,260,2014-03-11 11:54:00
8:54 AM,60.1,37.9,44,29.75,10.0,West,4.6,-,N/A,,Clear,260,2014-03-11 12:54:00
9:54 AM,66.0,37.9,36,29.75,10.0,WNW,6.9,-,N/A,,Clear,290,2014-03-11 13:54:00
10:54 AM,70.0,39.0,32,29.76,10.0,West,9.2,-,N/A,,Clear,260,2014-03-11 14:54:00
11:54 AM,73.9,35.1,24,29.75,10.0,WNW,6.9,-,N/A,,Clear,300,2014-03-11 15:54:00
12:54 PM,75.9,33.1,21,29.73,10.0,WNW,4.6,-,N/A,,Clear,300,2014-03-11 16:54:00
1:54 PM,75.9,36.0,23,29.70,10.0,South,9.2,16.1,N/A,,Clear,190,2014-03-11 17:54:00
2:54 PM,78.1,36.0,22,29.68,10.0,SSW,5.8,-,N/A,,Clear,200,2014-03-11 18:54:00
3:54 PM,80.1,35.1,20,29.65,10.0,SSW,6.9,-,N/A,,Clear,210,2014-03-11 19:54:00
4:54 PM,79.0,34.0,20,29.64,10.0,South,8.1,-,N/A,,Clear,180,2014-03-11 20:54:00
5:54 PM,75.0,36.0,24,29.64,10.0,SE,10.4,-,N/A,,Clear,140,2014-03-11 21:54:00
6:54 PM,68.0,37.0,32,29.66,10.0,ESE,6.9,-,N/A,,Clear,110,2014-03-11 22:54:00
7:54 PM,59.0,37.0,44,29.67,10.0,East,5.8,-,N/A,,Clear,80,2014-03-11 23:54:00
8:54 PM,55.0,39.0,55,29.68,10.0,East,4.6,-,N/A,,Clear,80,2014-03-12 00:54:00
9:54 PM,53.1,39.9,61,29.68,10.0,ENE,3.5,-,N/A,,Clear,60,2014-03-12 01:54:00
10:54 PM,50.0,39.0,66,29.69,10.0,Calm,Calm,-,N/A,,Clear,0,2014-03-12 02:54:00
11:54 PM,50.0,39.9,68,29.67,10.0,Calm,Calm,-,N/A,,Clear,0,2014-03-12 03:54:00